Location: ????????
(55.4000°N, 39.1167°E)
Time: 13:57:02
(UTC+00:00)

Cosmos 2208 Rocket - Pass Details

Date: 19 May 2025
Orbit: 752 x 801 km, 74.0° (Epoch: 20 June)

Event Time Altitude Azimuth Distance (km) Brightness Sun altitude
Exits shadow 19:14:41 - 196° (SSW) 3,107 6.7 -10.1°
Reaches altitude 10° 19:16:38 10° 194° (SSW) 2,356 6.1 -10.2°
Maximum altitude 19:21:57 68° 113° (ESE) 848 4.1 -10.6°
Drops below altitude 10° 19:27:14 10° 31° (NNE) 2,341 7.0 -10.9°
Sets 19:29:37 0° 29° (NNE) 3,265 7.8 -11.1°
